星链-30128 (STARLINK-30128 )

导读

STARLINK-30128是美国太空探索技术公司星链星座的组网卫星,于2023年6月4日发射入轨,属于Starlink Group 5-11星链任务批次。该卫星为低轨互联网通信卫星,依托星链低轨星座架构,为全球多地提供高速低延迟互联网接入服务,进一步扩充了星链系统的覆盖范围与服务容量。

Basic Information
目录编号:
56832
目录名称:
STARLINK-30128
国际标识:
2023-079K
轨道中心:
EARTH
卫星名称:
星链-30128
卫星全名:
星链-30128 (STARLINK-30128 )
卫星状态:
在轨 (已飞行1107 天)
发射日期:
2023-06-04 UTC
国别 :
美国 (US)
星等 :
--
Orbit Information
数据来源 国际轨道数据 AOE轨道数据
星历时间 2026-06-15T06:26:59+0800
7小时前
查看轨道信息
2026-06-15T08:00:00+0800
5小时前
查看轨道信息
半长轴 6861.197km 6861.184km
偏心率 0.0000936 0.0001646
轨道倾角 43.005° 43.003°
近地点辐角 296.400° 332.292°
升交点赤经 252.040° 251.675°
平近点角 63.675° 23.482°
近地点 482.417km 481.917km
远地点 483.703km 484.177km
周期 94.267分钟 94.267分钟
每日圈数 15.275764 15.275807
Detailed Information
固有亮度:
5
最大亮度:
0.5
卫星平台:
Starlink v2.0 mini
覆盖范围:
全球
运营商:
太空探索技术公司
运营商所在国:
美国
制造商(研发单位):
太空探索技术公司
制造商所在国:
美国
使用方式:
暂无
Satellite Introduction
星链(Starlink)计划是由太空探索技术公司(SpaceX)提出的一个巨型低轨卫星互联网星座项目,计划在2019年至2024年间在太空搭建由约1.2万颗卫星组成的“星链”网络,其中1584颗将部署在地球上空550千米处的近地轨道,并从2020年开始工作。该卫星仍在工作。
2D Orbit Map
3D Orbit Map
Orbit Altitude Analysis Chart
Orbit Inclination Analysis Chart
Orbit Comprehensive Analysis Chart
View Comprehensive Chart